sat.trackr.live / text

‹ back to catalog

STARLINK-5797

NORAD 55784 · 2023-028AV

PAYLOAD ACTIVE UNKNOWN

§ Identity

Operator
Country
US
Launch date
2023-03-03
Launch site
AFWTR
Launch vehicle
Mass (kg)
RCS (m²)

Purposes: comms

External: N2YO · Heavens-Above · Gunter

§ Orbital elements

Epoch: 2026-09-20T22:00:03.000096Z

Period
95.81 min
Inclination
70.0009°
Eccentricity
0.0002348
Mean motion
15.02998105 rev/d
Perigee alt
556.0 km
Apogee alt
559.3 km
Semi-major
6,935.8 km
B*
6.7345e-3
RAAN
72.2828°
Arg perigee
270.0167°
Mean anomaly
245.9224°
Rev number
566

§ Raw data

STARLINK-57971 55784U 23028AV  26263.91670139  .00091886  00000+0  67345-2 0  99972 55784  70.0009  72.2828 0002348 270.0167 245.9224 15.02998105  5661

JSON: /api/v1/satellites/55784 · /tle

For live sub-satellite position, see the globe view (requires WebGL).

§ Visibility from observer

Set your observer location to see the next 7 days of passes ≥ 10°. The values pass through the URL so the page stays shareable.

No JS? Fill the form by hand. The geolocation button needs JavaScript.